This is the latest recevied weather packets stored in our database for station/object DM4XI-13. If no packets are shown the sender has not sent any weather packets the latest 10 day(s).
| Time | Temp. | Humidity | Pressure | Rain* | Wind** | Luminosity | Snow |
|---|---|---|---|---|---|---|---|
| 1778151197 | 12.22° C | 81% | 1011 hPa | 0 mm | 0.45 m/s, 209° | 32 W/m² | - |
| 1778151137 | 12.22° C | 81% | 1010.9 hPa | 0 mm | 1.34 m/s, 182° | 32 W/m² | - |
| 1778151076 | 12.22° C | 81% | 1010.8 hPa | 0 mm | 0.45 m/s, 175° | 34 W/m² | - |
| 1778151015 | 12.22° C | 80% | 1010.8 hPa | 0 mm | 1.79 m/s, 210° | 42 W/m² | - |
| 1778150953 | 12.78° C | 79% | 1011 hPa | 0 mm | 0 m/s | 53 W/m² | - |
| 1778150892 | 12.78° C | 77% | 1010.9 hPa | 0 mm | 2.24 m/s, 177° | 66 W/m² | - |
| 1778150832 | 12.78° C | 78% | 1010.9 hPa | 0 mm | 0.45 m/s, 177° | 78 W/m² | - |
| 1778150771 | 12.78° C | 77% | 1010.7 hPa | 0 mm | 1.34 m/s, 153° | 88 W/m² | - |
| 1778150709 | 12.78° C | 78% | 1010.8 hPa | 0 mm | 0.45 m/s, 225° | 105 W/m² | - |
| 1778150648 | 12.22° C | 78% | 1011.1 hPa | 0 mm | 0.45 m/s, 181° | 127 W/m² | - |
| 1778150587 | 12.22° C | 79% | 1010.8 hPa | 0 mm | 0.45 m/s, 182° | 155 W/m² | - |
| 1778150526 | 12.22° C | 79% | 1010.8 hPa | 0 mm | 1.34 m/s, 288° | 180 W/m² | - |
| 1778150465 | 12.22° C | 78% | 1010.9 hPa | 0 mm | 0.89 m/s, 291° | 195 W/m² | - |
| 1778150404 | 12.22° C | 79% | 1010.9 hPa | 0 mm | 0.89 m/s, 161° | 211 W/m² | - |
| 1778150343 | 12.22° C | 78% | 1010.7 hPa | 0 mm | 1.79 m/s, 236° | 232 W/m² | - |
| 1778150282 | 12.22° C | 79% | 1010.9 hPa | 0 mm | 0.89 m/s, 265° | 246 W/m² | - |
| 1778150221 | 12.22° C | 79% | 1011 hPa | 0 mm | 0.45 m/s, 203° | 244 W/m² | - |
| 1778150160 | 12.22° C | 79% | 1010.7 hPa | 0 mm | 0.89 m/s, 175° | 222 W/m² | - |
| 1778150099 | 12.22° C | 80% | 1010.7 hPa | 0 mm | 0.45 m/s, 169° | 197 W/m² | - |
| 1778150038 | 12.22° C | 79% | 1011 hPa | 0 mm | 0.45 m/s, 201° | 167 W/m² | - |
| 1778149977 | 12.22° C | 79% | 1010.8 hPa | 0 mm | 1.34 m/s, 282° | 148 W/m² | - |
| 1778149916 | 12.22° C | 79% | 1010.9 hPa | 0 mm | 0.45 m/s, 253° | 139 W/m² | - |
| 1778149855 | 12.22° C | 78% | 1010.9 hPa | 0 mm | 1.79 m/s, 243° | 139 W/m² | - |
| 1778149794 | 12.22° C | 78% | 1010.8 hPa | 0 mm | 0.89 m/s, 281° | 144 W/m² | - |
| 1778149733 | 12.22° C | 77% | 1011.1 hPa | 0 mm | 1.34 m/s, 225° | 149 W/m² | - |
* Rain latest hour (hover to see other rain measurements)
** Current wind speed in m/s (hover to see current wind gust speed)